Location: San Antonio
(29.4240°N, 98.4930°W)
Time: 13:15:43
(UTC-05:00)

AO-91 - Visible Passes

Search period start: 16 June 2025 00:00
Search period end: 26 June 2025 00:00
Orbit: 432 x 672 km, 97.5° (Epoch: 16 June)

Date Brightness Start Highest point End Pass type
(mag) Time Alt. Az. Time Alt. Az. Time Alt. Az.
16 Jun ? 22:11:49 10° NE 22:13:21 21° ENE 22:13:21 21° ENE visible
17 Jun ? 22:08:13 10° NE 22:09:38 19° ENE 22:09:38 19° ENE visible
18 Jun ? 22:04:36 10° NE 22:05:52 17° ENE 22:05:52 17° ENE visible
18 Jun ? 23:40:57 10° WNW 23:41:38 11° WNW 23:41:38 11° WNW visible
19 Jun ? 22:01:00 10° NE 22:02:07 16° ENE 22:02:07 16° ENE visible
19 Jun ? 23:36:40 10° NW 23:37:52 12° WNW 23:37:52 12° WNW visible
20 Jun ? 21:57:24 10° NE 21:58:21 14° ENE 21:58:21 14° ENE visible
20 Jun ? 23:32:32 10° NW 23:34:06 14° WNW 23:34:06 14° WNW visible
21 Jun ? 21:53:50 10° ENE 21:54:35 13° ENE 21:54:35 13° ENE visible
21 Jun ? 23:28:29 10° NNW 23:30:19 16° WNW 23:30:19 16° WNW visible
22 Jun ? 21:50:18 10° ENE 21:50:47 12° ENE 21:50:47 12° ENE visible
22 Jun ? 23:24:29 10° NNW 23:26:32 18° WNW 23:26:32 18° WNW visible
23 Jun ? 21:46:49 10° ENE 21:46:59 10° ENE 21:46:59 10° ENE visible
23 Jun ? 23:20:29 10° NNW 23:22:44 20° WNW 23:22:44 20° WNW visible
24 Jun ? 23:16:31 10° NNW 23:18:55 23° WNW 23:18:55 23° WNW visible
25 Jun ? 23:12:32 10° NNW 23:15:05 26° WNW 23:15:05 26° WNW visible
